{"data":{"norad_id":56746,"intl_designator":"2023-072D","name":"2023-072D","alt_names":[],"object_type":"PAYLOAD","status":"ACTIVE","operator":null,"country":"SKOR","launch_date":"2023-05-25","launch_site_code":"NSC","launch_vehicle":null,"mission":null,"orbit_class":"UNKNOWN","rcs_meters":null,"size_class":null,"mass_kg":null,"dimensions":null,"purposes":[],"wikipedia_slug":null,"has_3d_model":false,"image_url":null,"decayed_at":null,"tle_current":{"epoch":"2026-05-25T04:55:29.328384Z","epoch_age_seconds":54011,"freshness":"FRESH","line1":"1 56746U 23072D   26145.20520056  .00079477  00000+0  77578-3 0  9990","line2":"2 56746  97.4959 359.9566 0002683  87.1777 272.9790 15.65943540167262","mean_motion":15.6594354,"eccentricity":0.0002683,"inclination_deg":97.4959,"raan_deg":359.9566,"arg_perigee_deg":87.1777,"mean_anomaly_deg":272.979,"bstar":0.00077578,"rev_number":16726,"period_min":91.957338385265,"perigee_km":368.71584836634,"apogee_km":372.33718120837,"semimajor_km":6748.6635147874,"source":"CELESTRAK","updated_at":"2026-05-25T13:37:59.661200Z"}}}